Location: *
(49.4547°N, 7.9131°E)
Time: 09:28:19
(UTC+00:00)

ADEOS Rocket - Pass Details

Date: 22 September 2019
Orbit: 859 x 1306 km, 98.7° (Epoch: 18 October)

Event Time Altitude Azimuth Distance (km) Brightness Sun altitude
Rises 20:28:15 0° 12° (NNE) 4,078 6.6 -28.1°
Reaches altitude 10° 20:30:51 10° 7° (N) 3,164 6.0 -28.5°
Maximum altitude 20:37:55 52° 294° (WNW) 1,540 4.2 -29.3°
Drops below altitude 10° 20:45:21 10° 221° (SW) 3,315 5.7 -30.2°
Sets 20:48:09 0° 217° (SW) 4,287 6.3 -30.6°
